Regional Weather Roundup
Issued by NWS

Home | Current Version | Previous Version | Text Only | Print | Product List | Glossary Off
Versions: 1 2 3 4 5 6 7 8 9 10 11 12 13 14 15 16 17 18 19 20 21 22 23 24 25 26 27 28 29 30 31 32 33 34 35 36 37 38 39 40 41 42 43 44 45 46 47 48 49 50

800
ASUS43 KLSX 230457
RWRMO

WEATHER SUMMARY FOR MISSOURI
NATIONAL WEATHER SERVICE SPRINGFIELD MO
1100 PM CST WED NOV 22 2017

NOTE: "FAIR" INDICATES FEW OR NO CLOUDS BELOW 12,000 FEET WITH NO
       SIGNIFICANT WEATHER AND/OR OBSTRUCTIONS TO VISIBILITY.
       CURRENT SKY AND/OR WEATHER CONDITIONS ARE NOT AVAILABLE FOR
       CHILLICOTHE AND FARMINGTON.

MOZ001>031-035>038-043-044-053-054-230600-
...NORTHERN AND WESTERN MISSOURI...

CITY           SKY/WX    TMP DP  RH WIND       PRES   REMARKS
KANSAS CTY INT MOCLDY    38  19  46 S14       30.12F WCI  30
LEE`S SUMMIT   PTCLDY    37  21  52 SW14      30.16F WCI  28
ST JOSEPH      CLOUDY    36  16  44 S8        30.12F WCI  30
CHILLICOTHE      N/A     33  19  56 S7        30.17F WCI  27

$$
MOZ066>068-077>081-088>096-101>105-230600-
...SOUTHWEST MISSOURI...

CITY           SKY/WX    TMP DP  RH WIND       PRES   REMARKS
SPRINGFIELD    PTCLDY    32  22  66 S3        30.21F
JOPLIN         CLOUDY    31  24  75 S5        30.23F WCI  26

$$
MOZ032>034-039>042-045>050-055>058-069>072-230600-
...CENTRAL MISSOURI...

CITY           SKY/WX    TMP DP  RH WIND       PRES   REMARKS
COLUMBIA       NOT AVBL
JEFFERSON CITY PTCLDY    30  20  66 CALM      30.22F
ROLLA          PTCLDY    32  17  54 S7        30.21F WCI  26
SEDALIA        CLOUDY    33  23  66 S6        30.20F WCI  28
WARRENSBURG    PTCLDY    32  21  64 S7        30.18F WCI  26

$$
MOZ051-052-059>065-230600-
...EAST CENTRAL MISSOURI...

CITY           SKY/WX    TMP DP  RH WIND       PRES   REMARKS
ST LOUIS INTL  CLOUDY    36  20  52 S9        30.23F WCI  29

$$
MOZ072>076-082>087-097>100-106>115-230600-
...SOUTH CENTRAL AND SOUTHEAST MISSOURI...

CITY           SKY/WX    TMP DP  RH WIND       PRES   REMARKS
CAPE GIRARDEAU CLOUDY    26  21  81 CALM      30.28S
POPLAR BLUFF   PTCLDY    27  23  85 CALM      30.28F
WEST PLAINS    PTCLDY    31  17  56 S5        30.22F WCI  26

$$



USA.gov is the U.S. government's official web portal to all federal, state and local government web resources and services.